Year,Month,Day,Hour,Minute,Value (Times are PST for temperature in C)
2006,06,25,00,00,15.50
2006,06,25,00,01,15.50
2006,06,25,00,02,15.50
2006,06,25,00,03,15.50
2006,06,25,00,04,15.40
2006,06,25,00,05,15.40
2006,06,25,00,06,15.40
2006,06,25,00,07,15.40
2006,06,25,00,08,15.40
2006,06,25,00,09,15.40
2006,06,25,00,10,15.40
2006,06,25,00,11,15.40
2006,06,25,00,12,15.40
2006,06,25,00,13,15.30
2006,06,25,00,14,15.30
2006,06,25,00,15,15.30
2006,06,25,00,16,15.30
2006,06,25,00,17,15.30
2006,06,25,00,18,15.30
2006,06,25,00,19,15.30
2006,06,25,00,20,15.30
2006,06,25,00,21,15.30
2006,06,25,00,22,15.30
2006,06,25,00,23,15.30
2006,06,25,00,24,15.30
2006,06,25,00,25,15.30
2006,06,25,00,26,15.20
2006,06,25,00,27,15.20
2006,06,25,00,28,15.20
2006,06,25,00,29,15.20
2006,06,25,00,30,15.20
2006,06,25,00,31,15.20
2006,06,25,00,32,15.20
2006,06,25,00,33,15.20
2006,06,25,00,34,15.20
2006,06,25,00,35,15.10
2006,06,25,00,36,15.10
2006,06,25,00,37,15.10
2006,06,25,00,38,15.10
2006,06,25,00,39,15.10
2006,06,25,00,40,15.10
2006,06,25,00,41,15.10
2006,06,25,00,42,15.10
2006,06,25,00,43,15.10
2006,06,25,00,44,15.10
2006,06,25,00,45,15.00
2006,06,25,00,46,15.00
2006,06,25,00,47,14.90
2006,06,25,00,48,14.90
2006,06,25,00,49,14.90
2006,06,25,00,50,14.90
2006,06,25,00,51,14.80
2006,06,25,00,52,14.80
2006,06,25,00,53,14.80
2006,06,25,00,54,14.80
2006,06,25,00,55,14.70
2006,06,25,00,56,14.70
2006,06,25,00,57,14.70
2006,06,25,00,58,14.60
2006,06,25,00,59,14.60
2006,06,25,01,00,14.60
2006,06,25,01,01,14.60
2006,06,25,01,02,14.50
2006,06,25,01,03,14.50
2006,06,25,01,04,14.50
2006,06,25,01,05,14.50
2006,06,25,01,06,14.50
2006,06,25,01,07,14.50
2006,06,25,01,08,14.50
2006,06,25,01,09,14.50
2006,06,25,01,10,14.40
2006,06,25,01,11,14.40
2006,06,25,01,12,14.40
2006,06,25,01,13,14.40
2006,06,25,01,14,14.40
2006,06,25,01,15,14.40
2006,06,25,01,16,14.40
2006,06,25,01,17,14.40
2006,06,25,01,18,14.40
2006,06,25,01,19,14.40
2006,06,25,01,20,14.30
2006,06,25,01,21,14.30
2006,06,25,01,22,14.30
2006,06,25,01,23,14.30
2006,06,25,01,24,14.30
2006,06,25,01,25,14.30
2006,06,25,01,26,14.30
2006,06,25,01,27,14.30
2006,06,25,01,28,14.30
2006,06,25,01,29,14.30
2006,06,25,01,30,14.30
2006,06,25,01,31,14.30
2006,06,25,01,32,14.30
2006,06,25,01,33,14.20
2006,06,25,01,34,14.20
2006,06,25,01,35,14.20
2006,06,25,01,36,14.20
2006,06,25,01,37,14.20
2006,06,25,01,38,14.20
2006,06,25,01,39,14.20
2006,06,25,01,40,14.20
2006,06,25,01,41,14.20
2006,06,25,01,42,14.20
2006,06,25,01,43,14.20
2006,06,25,01,44,14.20
2006,06,25,01,45,14.20
2006,06,25,01,46,14.20
2006,06,25,01,47,14.20
2006,06,25,01,48,14.20
2006,06,25,01,49,14.20
2006,06,25,01,50,14.20
2006,06,25,01,51,14.20
2006,06,25,01,52,14.20
2006,06,25,01,53,14.20
2006,06,25,01,54,14.10
2006,06,25,01,55,14.10
2006,06,25,01,56,14.10
2006,06,25,01,57,14.10
2006,06,25,01,58,14.10
2006,06,25,01,59,14.10
2006,06,25,02,00,14.10
2006,06,25,02,01,14.00
2006,06,25,02,02,14.00
2006,06,25,02,03,14.00
2006,06,25,02,04,14.00
2006,06,25,02,05,14.00
2006,06,25,02,06,14.00
2006,06,25,02,07,14.00
2006,06,25,02,08,14.00
2006,06,25,02,09,13.90
2006,06,25,02,10,13.90
2006,06,25,02,11,13.90
2006,06,25,02,12,13.90
2006,06,25,02,13,13.90
2006,06,25,02,14,13.90
2006,06,25,02,15,13.90
2006,06,25,02,16,13.80
2006,06,25,02,17,13.80
2006,06,25,02,18,13.80
2006,06,25,02,19,13.80
2006,06,25,02,20,13.80
2006,06,25,02,21,13.80
2006,06,25,02,22,13.80
2006,06,25,02,23,13.80
2006,06,25,02,24,13.80
2006,06,25,02,25,13.80
2006,06,25,02,26,13.80
2006,06,25,02,27,13.80
2006,06,25,02,28,13.80
2006,06,25,02,29,13.80
2006,06,25,02,30,13.70
2006,06,25,02,31,13.70
2006,06,25,02,32,13.70
2006,06,25,02,33,13.70
2006,06,25,02,34,13.70
2006,06,25,02,35,13.70
2006,06,25,02,36,13.70
2006,06,25,02,37,13.70
2006,06,25,02,38,13.70
2006,06,25,02,39,13.70
2006,06,25,02,40,13.70
2006,06,25,02,41,13.70
2006,06,25,02,42,13.70
2006,06,25,02,43,13.70
2006,06,25,02,44,13.70
2006,06,25,02,45,13.70
2006,06,25,02,46,13.60
2006,06,25,02,47,13.60
2006,06,25,02,48,13.60
2006,06,25,02,49,13.60
2006,06,25,02,50,13.60
2006,06,25,02,51,13.60
2006,06,25,02,52,13.50
2006,06,25,02,53,13.50
2006,06,25,02,54,13.50
2006,06,25,02,55,13.50
2006,06,25,02,56,13.50
2006,06,25,02,57,13.50
2006,06,25,02,58,13.50
2006,06,25,02,59,13.50
2006,06,25,03,00,13.50
2006,06,25,03,01,13.50
2006,06,25,03,02,13.50
2006,06,25,03,03,13.50
2006,06,25,03,04,13.50
2006,06,25,03,05,13.50
2006,06,25,03,06,13.40
2006,06,25,03,07,13.40
2006,06,25,03,08,13.40
2006,06,25,03,09,13.40
2006,06,25,03,10,13.40
2006,06,25,03,11,13.30
2006,06,25,03,12,13.30
2006,06,25,03,13,13.30
2006,06,25,03,14,13.30
2006,06,25,03,15,13.30
2006,06,25,03,16,13.30
2006,06,25,03,17,13.30
2006,06,25,03,18,13.30
2006,06,25,03,19,13.30
2006,06,25,03,20,13.30
2006,06,25,03,21,13.30
2006,06,25,03,22,13.30
2006,06,25,03,23,13.30
2006,06,25,03,24,13.30
2006,06,25,03,25,13.30
2006,06,25,03,26,13.30
2006,06,25,03,27,13.30
2006,06,25,03,28,13.30
2006,06,25,03,29,13.30
2006,06,25,03,30,13.30
2006,06,25,03,31,13.30
2006,06,25,03,32,13.30
2006,06,25,03,33,13.30
2006,06,25,03,34,13.30
2006,06,25,03,35,13.30
2006,06,25,03,36,13.30
2006,06,25,03,37,13.30
2006,06,25,03,38,13.30
2006,06,25,03,39,13.20
2006,06,25,03,40,13.20
2006,06,25,03,41,13.20
2006,06,25,03,42,13.20
2006,06,25,03,43,13.20
2006,06,25,03,44,13.20
2006,06,25,03,45,13.20
2006,06,25,03,46,13.20
2006,06,25,03,47,13.20
2006,06,25,03,48,13.20
2006,06,25,03,49,13.10
2006,06,25,03,50,13.10
2006,06,25,03,51,13.10
2006,06,25,03,52,13.10
2006,06,25,03,53,13.10
2006,06,25,03,54,13.00
2006,06,25,03,55,13.00
2006,06,25,03,56,13.00
2006,06,25,03,57,13.00
2006,06,25,03,58,13.00
2006,06,25,03,59,13.00
2006,06,25,04,00,13.00
2006,06,25,04,01,13.00
2006,06,25,04,02,13.00
2006,06,25,04,03,13.00
2006,06,25,04,04,13.00
2006,06,25,04,05,13.00
2006,06,25,04,06,13.00
2006,06,25,04,07,13.00
2006,06,25,04,08,13.00
2006,06,25,04,09,13.00
2006,06,25,04,10,13.00
2006,06,25,04,11,13.00
2006,06,25,04,12,13.10
2006,06,25,04,13,13.10
2006,06,25,04,14,13.00
2006,06,25,04,15,13.00
2006,06,25,04,16,13.00
2006,06,25,04,17,13.00
2006,06,25,04,18,13.00
2006,06,25,04,19,13.00
2006,06,25,04,20,12.90
2006,06,25,04,21,12.90
2006,06,25,04,22,12.90
2006,06,25,04,23,13.00
2006,06,25,04,24,13.00
2006,06,25,04,25,13.00
2006,06,25,04,26,13.00
2006,06,25,04,27,13.10
2006,06,25,04,28,13.10
2006,06,25,04,29,13.10
2006,06,25,04,30,13.20
2006,06,25,04,31,13.20
2006,06,25,04,32,13.20
2006,06,25,04,33,13.30
2006,06,25,04,34,13.30
2006,06,25,04,35,13.30
2006,06,25,04,36,13.30
2006,06,25,04,37,13.30
2006,06,25,04,38,13.40
2006,06,25,04,39,13.40
2006,06,25,04,40,13.50
2006,06,25,04,41,13.60
2006,06,25,04,42,13.80
2006,06,25,04,43,13.90
2006,06,25,04,44,14.10
2006,06,25,04,45,14.30
2006,06,25,04,46,14.50
2006,06,25,04,47,14.60
2006,06,25,04,48,14.70
2006,06,25,04,49,14.80
2006,06,25,04,50,14.90
2006,06,25,04,51,14.90
2006,06,25,04,52,15.00
2006,06,25,04,53,15.00
2006,06,25,04,54,15.10
2006,06,25,04,55,15.20
2006,06,25,04,56,15.20
2006,06,25,04,57,15.20
2006,06,25,04,58,15.20
2006,06,25,04,59,15.20
2006,06,25,05,00,15.20
2006,06,25,05,01,15.20
2006,06,25,05,02,15.20
2006,06,25,05,03,15.20
2006,06,25,05,04,15.10
2006,06,25,05,05,15.10
2006,06,25,05,06,15.00
2006,06,25,05,07,15.00
2006,06,25,05,08,14.90
2006,06,25,05,09,14.80
2006,06,25,05,10,14.80
2006,06,25,05,11,14.80
2006,06,25,05,12,14.70
2006,06,25,05,13,14.70
2006,06,25,05,14,14.70
2006,06,25,05,15,14.70
2006,06,25,05,16,14.70
2006,06,25,05,17,14.60
2006,06,25,05,18,14.60
2006,06,25,05,19,14.60
2006,06,25,05,20,14.60
2006,06,25,05,21,14.60
2006,06,25,05,22,14.60
2006,06,25,05,23,14.60
2006,06,25,05,24,14.50
2006,06,25,05,25,14.60
2006,06,25,05,26,14.50
2006,06,25,05,27,14.50
2006,06,25,05,28,14.50
2006,06,25,05,29,14.50
2006,06,25,05,30,14.50
2006,06,25,05,31,14.50
2006,06,25,05,32,14.50
2006,06,25,05,33,14.50
2006,06,25,05,34,14.40
2006,06,25,05,35,14.40
2006,06,25,05,36,14.40
2006,06,25,05,37,14.40
2006,06,25,05,38,14.40
2006,06,25,05,39,14.40
2006,06,25,05,40,14.40
2006,06,25,05,41,14.40
2006,06,25,05,42,14.40
2006,06,25,05,43,14.40
2006,06,25,05,44,14.50
2006,06,25,05,45,14.50
2006,06,25,05,46,14.50
2006,06,25,05,47,14.40
2006,06,25,05,48,14.40
2006,06,25,05,49,14.40
2006,06,25,05,50,14.40
2006,06,25,05,51,14.40
2006,06,25,05,52,14.40
2006,06,25,05,53,14.50
2006,06,25,05,54,14.50
2006,06,25,05,55,14.50
2006,06,25,05,56,14.50
2006,06,25,05,57,14.60
2006,06,25,05,58,14.60
2006,06,25,05,59,14.60
2006,06,25,06,00,14.70
2006,06,25,06,01,14.70
2006,06,25,06,02,14.70
2006,06,25,06,03,14.80
2006,06,25,06,04,14.80
2006,06,25,06,05,14.80
2006,06,25,06,06,14.80
2006,06,25,06,07,14.80
2006,06,25,06,08,14.80
2006,06,25,06,09,14.90
2006,06,25,06,10,14.90
2006,06,25,06,11,14.90
2006,06,25,06,12,15.00
2006,06,25,06,13,15.10
2006,06,25,06,14,15.10
2006,06,25,06,15,15.10
2006,06,25,06,16,15.20
2006,06,25,06,17,15.20
2006,06,25,06,18,15.30
2006,06,25,06,19,15.30
2006,06,25,06,20,15.30
2006,06,25,06,21,15.30
2006,06,25,06,22,15.30
2006,06,25,06,23,15.30
2006,06,25,06,24,15.30
2006,06,25,06,25,15.30
2006,06,25,06,26,15.40
2006,06,25,06,27,15.50
2006,06,25,06,28,15.50
2006,06,25,06,29,15.60
2006,06,25,06,30,15.60
2006,06,25,06,31,15.70
2006,06,25,06,32,15.70
2006,06,25,06,33,15.80
2006,06,25,06,34,15.80
2006,06,25,06,35,15.90
2006,06,25,06,36,15.90
2006,06,25,06,37,15.90
2006,06,25,06,38,16.10
2006,06,25,06,39,16.10
2006,06,25,06,40,16.10
2006,06,25,06,41,16.10
2006,06,25,06,42,16.10
2006,06,25,06,43,16.20
2006,06,25,06,44,16.20
2006,06,25,06,45,16.30
2006,06,25,06,46,16.30
2006,06,25,06,47,16.40
2006,06,25,06,48,16.40
2006,06,25,06,49,16.50
2006,06,25,06,50,16.60
2006,06,25,06,51,16.60
2006,06,25,06,52,16.60
2006,06,25,06,53,16.70
2006,06,25,06,54,16.70
2006,06,25,06,55,16.70
2006,06,25,06,56,16.70
2006,06,25,06,57,16.70
2006,06,25,06,58,16.70
2006,06,25,06,59,16.70
2006,06,25,07,00,16.80
2006,06,25,07,01,16.80
2006,06,25,07,02,16.90
2006,06,25,07,03,16.90
2006,06,25,07,04,16.90
2006,06,25,07,05,16.90
2006,06,25,07,06,16.90
2006,06,25,07,07,17.00
2006,06,25,07,08,17.00
2006,06,25,07,09,17.00
2006,06,25,07,10,17.00
2006,06,25,07,11,17.10
2006,06,25,07,12,17.10
2006,06,25,07,13,17.20
2006,06,25,07,14,17.30
2006,06,25,07,15,17.30
2006,06,25,07,16,17.40
2006,06,25,07,17,17.50
2006,06,25,07,18,17.50
2006,06,25,07,19,17.60
2006,06,25,07,20,17.70
2006,06,25,07,21,17.80
2006,06,25,07,22,17.80
2006,06,25,07,23,17.90
2006,06,25,07,24,17.90
2006,06,25,07,25,18.10
2006,06,25,07,26,18.20
2006,06,25,07,27,18.20
2006,06,25,07,28,18.40
2006,06,25,07,29,18.50
2006,06,25,07,30,18.60
2006,06,25,07,31,18.80
2006,06,25,07,32,18.90
2006,06,25,07,33,19.00
2006,06,25,07,34,19.10
2006,06,25,07,35,19.30
2006,06,25,07,36,19.30
2006,06,25,07,37,19.40
2006,06,25,07,38,19.50
2006,06,25,07,39,19.50
2006,06,25,07,40,19.60
2006,06,25,07,41,19.60
2006,06,25,07,42,19.70
2006,06,25,07,43,19.70
2006,06,25,07,44,19.70
2006,06,25,07,45,19.80
2006,06,25,07,46,19.90
2006,06,25,07,47,19.90
2006,06,25,07,48,19.90
2006,06,25,07,49,20.00
2006,06,25,07,50,20.10
2006,06,25,07,51,20.10
2006,06,25,07,52,20.20
2006,06,25,07,53,20.20
2006,06,25,07,54,20.20
2006,06,25,07,55,20.20
2006,06,25,07,56,20.20
2006,06,25,07,57,20.20
2006,06,25,07,58,20.30
2006,06,25,07,59,20.30
2006,06,25,08,00,20.40
2006,06,25,08,01,20.40
2006,06,25,08,02,20.50
2006,06,25,08,03,20.50
2006,06,25,08,04,20.50
2006,06,25,08,05,20.60
2006,06,25,08,06,20.60
2006,06,25,08,07,20.60
2006,06,25,08,08,20.70
2006,06,25,08,09,20.70
2006,06,25,08,10,20.70
2006,06,25,08,11,20.80
2006,06,25,08,12,20.80
2006,06,25,08,13,20.80
2006,06,25,08,14,20.80
2006,06,25,08,15,20.90
2006,06,25,08,16,20.90
2006,06,25,08,17,20.90
2006,06,25,08,18,21.00
2006,06,25,08,19,21.00
2006,06,25,08,20,21.00
2006,06,25,08,21,21.10
2006,06,25,08,22,21.10
2006,06,25,08,23,21.10
2006,06,25,08,24,21.10
2006,06,25,08,25,21.20
2006,06,25,08,26,21.20
2006,06,25,08,27,21.20
2006,06,25,08,28,21.20
2006,06,25,08,29,21.20
2006,06,25,08,30,21.20
2006,06,25,08,31,21.20
2006,06,25,08,32,21.20
2006,06,25,08,33,21.20
2006,06,25,08,34,21.20
2006,06,25,08,35,21.30
2006,06,25,08,36,21.30
2006,06,25,08,37,21.30
2006,06,25,08,38,21.30
2006,06,25,08,39,21.30
2006,06,25,08,40,21.40
2006,06,25,08,41,21.40
2006,06,25,08,42,21.40
2006,06,25,08,43,21.40
2006,06,25,08,44,21.40
2006,06,25,08,45,21.40
2006,06,25,08,46,21.50
2006,06,25,08,47,21.60
2006,06,25,08,48,21.60
2006,06,25,08,49,21.60
2006,06,25,08,50,21.60
2006,06,25,08,51,21.60
2006,06,25,08,52,21.60
2006,06,25,08,53,21.60
2006,06,25,08,54,21.60
2006,06,25,08,55,21.70
2006,06,25,08,56,21.70
2006,06,25,08,57,21.80
2006,06,25,08,58,21.80
2006,06,25,08,59,21.80
2006,06,25,09,00,21.90
2006,06,25,09,01,21.90
2006,06,25,09,02,21.80
2006,06,25,09,03,21.80
2006,06,25,09,04,21.80
2006,06,25,09,05,21.90
2006,06,25,09,06,21.90
2006,06,25,09,07,21.90
2006,06,25,09,08,21.90
2006,06,25,09,09,21.90
2006,06,25,09,10,21.90
2006,06,25,09,11,21.90
2006,06,25,09,12,21.90
2006,06,25,09,13,21.90
2006,06,25,09,14,22.00
2006,06,25,09,15,22.00
2006,06,25,09,16,22.00
2006,06,25,09,17,22.00
2006,06,25,09,18,22.00
2006,06,25,09,19,22.10
2006,06,25,09,20,22.20
2006,06,25,09,21,22.20
2006,06,25,09,22,22.20
2006,06,25,09,23,22.30
2006,06,25,09,24,22.30
2006,06,25,09,25,22.40
2006,06,25,09,26,22.50
2006,06,25,09,27,22.60
2006,06,25,09,28,22.70
2006,06,25,09,29,22.80
2006,06,25,09,30,22.80
2006,06,25,09,31,22.80
2006,06,25,09,32,22.70
2006,06,25,09,33,22.70
2006,06,25,09,34,22.60
2006,06,25,09,35,22.50
2006,06,25,09,36,22.40
2006,06,25,09,37,22.30
2006,06,25,09,38,22.20
2006,06,25,09,39,22.10
2006,06,25,09,40,22.10
2006,06,25,09,41,22.10
2006,06,25,09,42,22.20
2006,06,25,09,43,22.20
2006,06,25,09,44,22.20
2006,06,25,09,45,22.30
2006,06,25,09,46,22.30
2006,06,25,09,47,22.30
2006,06,25,09,48,22.30
2006,06,25,09,49,22.30
2006,06,25,09,50,22.30
2006,06,25,09,51,22.40
2006,06,25,09,52,22.50
2006,06,25,09,53,22.60
2006,06,25,09,54,22.60
2006,06,25,09,55,22.60
2006,06,25,09,56,22.60
2006,06,25,09,57,22.60
2006,06,25,09,58,22.70
2006,06,25,09,59,22.70
2006,06,25,10,00,22.70
2006,06,25,10,01,22.90
2006,06,25,10,02,22.90
2006,06,25,10,03,23.00
2006,06,25,10,04,23.10
2006,06,25,10,05,23.10
2006,06,25,10,06,23.10
2006,06,25,10,07,23.10
2006,06,25,10,08,23.00
2006,06,25,10,09,22.90
2006,06,25,10,10,22.90
2006,06,25,10,11,22.90
2006,06,25,10,12,22.80
2006,06,25,10,13,22.80
2006,06,25,10,14,22.70
2006,06,25,10,15,22.70
2006,06,25,10,16,22.70
2006,06,25,10,17,22.70
2006,06,25,10,18,22.80
2006,06,25,10,19,22.80
2006,06,25,10,20,22.90
2006,06,25,10,21,22.90
2006,06,25,10,22,23.00
2006,06,25,10,23,23.10
2006,06,25,10,24,23.10
2006,06,25,10,25,23.10
2006,06,25,10,26,23.10
2006,06,25,10,27,23.10
2006,06,25,10,28,23.20
2006,06,25,10,29,23.20
2006,06,25,10,30,23.20
2006,06,25,10,31,23.20
2006,06,25,10,32,23.20
2006,06,25,10,33,23.20
2006,06,25,10,34,23.20
2006,06,25,10,35,23.20
2006,06,25,10,36,23.20
2006,06,25,10,37,23.30
2006,06,25,10,38,23.40
2006,06,25,10,39,23.40
2006,06,25,10,40,23.50
2006,06,25,10,41,23.60
2006,06,25,10,42,23.70
2006,06,25,10,43,23.70
2006,06,25,10,44,23.70
2006,06,25,10,45,23.70
2006,06,25,10,46,23.70
2006,06,25,10,47,23.80
2006,06,25,10,48,23.80
2006,06,25,10,49,23.80
2006,06,25,10,50,23.80
2006,06,25,10,51,23.90
2006,06,25,10,52,23.90
2006,06,25,10,53,23.90
2006,06,25,10,54,23.90
2006,06,25,10,55,24.00
2006,06,25,10,56,24.10
2006,06,25,10,57,24.10
2006,06,25,10,58,24.10
2006,06,25,10,59,24.20
2006,06,25,11,00,24.20
2006,06,25,11,01,24.20
2006,06,25,11,02,24.20
2006,06,25,11,03,24.20
2006,06,25,11,04,24.10
2006,06,25,11,05,24.10
2006,06,25,11,06,24.20
2006,06,25,11,07,24.20
2006,06,25,11,08,24.10
2006,06,25,11,09,24.10
2006,06,25,11,10,24.10
2006,06,25,11,11,24.10
2006,06,25,11,12,24.20
2006,06,25,11,13,24.20
2006,06,25,11,14,24.20
2006,06,25,11,15,24.20
2006,06,25,11,16,24.20
2006,06,25,11,17,24.30
2006,06,25,11,18,24.30
2006,06,25,11,19,24.30
2006,06,25,11,20,24.30
2006,06,25,11,21,24.30
2006,06,25,11,22,24.20
2006,06,25,11,23,24.20
2006,06,25,11,24,24.30
2006,06,25,11,25,24.40
2006,06,25,11,26,24.40
2006,06,25,11,27,24.50
2006,06,25,11,28,24.50
2006,06,25,11,29,24.40
2006,06,25,11,30,24.30
2006,06,25,11,31,24.30
2006,06,25,11,32,24.20
2006,06,25,11,33,24.20
2006,06,25,11,34,24.10
2006,06,25,11,35,24.10
2006,06,25,11,36,24.10
2006,06,25,11,37,24.10
2006,06,25,11,38,24.10
2006,06,25,11,39,24.10
2006,06,25,11,40,24.20
2006,06,25,11,41,24.30
2006,06,25,11,42,24.40
2006,06,25,11,43,24.40
2006,06,25,11,44,24.40
2006,06,25,11,45,24.40
2006,06,25,11,46,24.50
2006,06,25,11,47,24.50
2006,06,25,11,48,24.50
2006,06,25,11,49,24.50
2006,06,25,11,50,24.50
2006,06,25,11,51,24.50
2006,06,25,11,52,24.60
2006,06,25,11,53,24.60
2006,06,25,11,54,24.60
2006,06,25,11,55,24.70
2006,06,25,11,56,24.70
2006,06,25,11,57,24.70
2006,06,25,11,58,24.70
2006,06,25,11,59,24.70
2006,06,25,12,00,24.70
2006,06,25,12,01,24.70
2006,06,25,12,02,24.70
2006,06,25,12,03,24.70
2006,06,25,12,04,24.80
2006,06,25,12,05,24.80
2006,06,25,12,06,24.90
2006,06,25,12,07,24.90
2006,06,25,12,08,25.00
2006,06,25,12,09,25.10
2006,06,25,12,10,25.10
2006,06,25,12,11,25.20
2006,06,25,12,12,25.30
2006,06,25,12,13,25.30
2006,06,25,12,14,25.20
2006,06,25,12,15,25.20
2006,06,25,12,16,25.10
2006,06,25,12,17,25.10
2006,06,25,12,18,25.10
2006,06,25,12,19,25.00
2006,06,25,12,20,24.90
2006,06,25,12,21,24.90
2006,06,25,12,22,24.90
2006,06,25,12,23,24.90
2006,06,25,12,24,24.80
2006,06,25,12,25,24.80
2006,06,25,12,26,24.80
2006,06,25,12,27,24.80
2006,06,25,12,28,24.80
2006,06,25,12,29,24.80
2006,06,25,12,30,24.90
2006,06,25,12,31,24.80
2006,06,25,12,32,24.80
2006,06,25,12,33,24.80
2006,06,25,12,34,24.80
2006,06,25,12,35,24.90
2006,06,25,12,36,24.90
2006,06,25,12,37,24.90
2006,06,25,12,38,24.90
2006,06,25,12,39,24.90
2006,06,25,12,40,25.00
2006,06,25,12,41,25.00
2006,06,25,12,42,25.10
2006,06,25,12,43,25.10
2006,06,25,12,44,25.10
2006,06,25,12,45,25.20
2006,06,25,12,46,25.20
2006,06,25,12,47,25.30
2006,06,25,12,48,25.30
2006,06,25,12,49,25.50
2006,06,25,12,50,25.60
2006,06,25,12,51,25.60
2006,06,25,12,52,25.60
2006,06,25,12,53,25.60
2006,06,25,12,54,25.60
2006,06,25,12,55,25.60
2006,06,25,12,56,25.60
2006,06,25,12,57,25.50
2006,06,25,12,58,25.60
2006,06,25,12,59,25.60
2006,06,25,13,00,25.70
2006,06,25,13,01,25.70
2006,06,25,13,02,25.80
2006,06,25,13,03,25.90
2006,06,25,13,04,26.00
2006,06,25,13,05,26.10
2006,06,25,13,06,26.10
2006,06,25,13,07,26.00
2006,06,25,13,08,26.00
2006,06,25,13,09,26.10
2006,06,25,13,10,26.20
2006,06,25,13,11,26.30
2006,06,25,13,12,26.30
2006,06,25,13,13,26.30
2006,06,25,13,14,26.20
2006,06,25,13,15,26.20
2006,06,25,13,16,26.10
2006,06,25,13,17,25.90
2006,06,25,13,18,25.90
2006,06,25,13,19,25.90
2006,06,25,13,20,25.90
2006,06,25,13,21,25.80
2006,06,25,13,22,25.80
2006,06,25,13,23,25.80
2006,06,25,13,24,25.80
2006,06,25,13,25,25.90
2006,06,25,13,26,25.90
2006,06,25,13,27,26.00
2006,06,25,13,28,26.00
2006,06,25,13,29,26.00
2006,06,25,13,30,26.00
2006,06,25,13,31,26.00
2006,06,25,13,32,26.10
2006,06,25,13,33,26.30
2006,06,25,13,34,26.40
2006,06,25,13,35,26.40
2006,06,25,13,36,26.40
2006,06,25,13,37,26.60
2006,06,25,13,38,26.60
2006,06,25,13,39,26.60
2006,06,25,13,40,26.50
2006,06,25,13,41,26.40
2006,06,25,13,42,26.30
2006,06,25,13,43,26.30
2006,06,25,13,44,26.40
2006,06,25,13,45,26.50
2006,06,25,13,46,26.60
2006,06,25,13,47,26.60
2006,06,25,13,48,26.60
2006,06,25,13,49,26.80
2006,06,25,13,50,26.80
2006,06,25,13,51,26.90
2006,06,25,13,52,27.10
2006,06,25,13,53,27.20
2006,06,25,13,54,27.20
2006,06,25,13,55,27.20
2006,06,25,13,56,27.30
2006,06,25,13,57,27.30
2006,06,25,13,58,27.30
2006,06,25,13,59,27.30
2006,06,25,14,00,27.20
2006,06,25,14,01,27.20
2006,06,25,14,02,27.10
2006,06,25,14,03,27.20
2006,06,25,14,04,27.20
2006,06,25,14,05,27.20
2006,06,25,14,06,27.20
2006,06,25,14,07,27.20
2006,06,25,14,08,27.10
2006,06,25,14,09,27.10
2006,06,25,14,10,27.10
2006,06,25,14,11,27.10
2006,06,25,14,12,27.20
2006,06,25,14,13,27.20
2006,06,25,14,14,27.20
2006,06,25,14,15,27.20
2006,06,25,14,16,27.20
2006,06,25,14,17,27.20
2006,06,25,14,18,27.20
2006,06,25,14,19,27.20
2006,06,25,14,20,27.30
2006,06,25,14,21,27.20
2006,06,25,14,22,27.30
2006,06,25,14,23,27.30
2006,06,25,14,24,27.40
2006,06,25,14,25,27.40
2006,06,25,14,26,27.50
2006,06,25,14,27,27.60
2006,06,25,14,28,27.60
2006,06,25,14,29,27.60
2006,06,25,14,30,27.60
2006,06,25,14,31,27.70
2006,06,25,14,32,27.70
2006,06,25,14,33,27.80
2006,06,25,14,34,27.80
2006,06,25,14,35,27.80
2006,06,25,14,36,27.70
2006,06,25,14,37,27.80
2006,06,25,14,38,27.70
2006,06,25,14,39,27.70
2006,06,25,14,40,27.60
2006,06,25,14,41,27.60
2006,06,25,14,42,27.60
2006,06,25,14,43,27.50
2006,06,25,14,44,27.50
2006,06,25,14,45,27.60
2006,06,25,14,46,27.50
2006,06,25,14,47,27.40
2006,06,25,14,48,27.50
2006,06,25,14,49,27.60
2006,06,25,14,50,27.70
2006,06,25,14,51,27.80
2006,06,25,14,52,27.80
2006,06,25,14,53,27.80
2006,06,25,14,54,27.80
2006,06,25,14,55,27.90
2006,06,25,14,56,27.90
2006,06,25,14,57,27.90
2006,06,25,14,58,27.90
2006,06,25,14,59,27.90
2006,06,25,15,00,27.90
2006,06,25,15,01,27.90
2006,06,25,15,02,27.90
2006,06,25,15,03,27.90
2006,06,25,15,04,28.00
2006,06,25,15,05,28.00
2006,06,25,15,06,28.00
2006,06,25,15,07,28.00
2006,06,25,15,08,28.00
2006,06,25,15,09,27.90
2006,06,25,15,10,27.90
2006,06,25,15,11,27.90
2006,06,25,15,12,28.00
2006,06,25,15,13,28.00
2006,06,25,15,14,28.10
2006,06,25,15,15,28.20
2006,06,25,15,16,28.20
2006,06,25,15,17,28.20
2006,06,25,15,18,28.20
2006,06,25,15,19,28.20
2006,06,25,15,20,28.10
2006,06,25,15,21,28.10
2006,06,25,15,22,28.10
2006,06,25,15,23,28.00
2006,06,25,15,24,28.00
2006,06,25,15,25,28.00
2006,06,25,15,26,28.00
2006,06,25,15,27,28.00
2006,06,25,15,28,28.00
2006,06,25,15,29,28.10
2006,06,25,15,30,28.10
2006,06,25,15,31,28.10
2006,06,25,15,32,28.30
2006,06,25,15,33,28.30
2006,06,25,15,34,28.20
2006,06,25,15,35,28.30
2006,06,25,15,36,28.30
2006,06,25,15,37,28.20
2006,06,25,15,38,28.20
2006,06,25,15,39,28.20
2006,06,25,15,40,28.20
2006,06,25,15,41,28.20
2006,06,25,15,42,28.30
2006,06,25,15,43,28.30
2006,06,25,15,44,28.50
2006,06,25,15,45,28.60
2006,06,25,15,46,28.70
2006,06,25,15,47,28.70
2006,06,25,15,48,28.70
2006,06,25,15,49,28.80
2006,06,25,15,50,28.80
2006,06,25,15,51,28.90
2006,06,25,15,52,28.90
2006,06,25,15,53,28.90
2006,06,25,15,54,28.90
2006,06,25,15,55,28.90
2006,06,25,15,56,29.00
2006,06,25,15,57,29.10
2006,06,25,15,58,29.10
2006,06,25,15,59,29.20
2006,06,25,16,00,29.20
2006,06,25,16,01,29.30
2006,06,25,16,02,29.30
2006,06,25,16,03,29.20
2006,06,25,16,04,29.20
2006,06,25,16,05,29.20
2006,06,25,16,06,29.20
2006,06,25,16,07,29.20
2006,06,25,16,08,29.10
2006,06,25,16,09,29.10
2006,06,25,16,10,29.00
2006,06,25,16,11,29.00
2006,06,25,16,12,29.10
2006,06,25,16,13,29.10
2006,06,25,16,14,29.10
2006,06,25,16,15,29.20
2006,06,25,16,16,29.30
2006,06,25,16,17,29.30
2006,06,25,16,18,29.40
2006,06,25,16,19,29.40
2006,06,25,16,20,29.50
2006,06,25,16,21,29.50
2006,06,25,16,22,29.60
2006,06,25,16,23,29.60
2006,06,25,16,24,29.70
2006,06,25,16,25,29.80
2006,06,25,16,26,29.80
2006,06,25,16,27,29.80
2006,06,25,16,28,29.90
2006,06,25,16,29,29.90
2006,06,25,16,30,30.00
2006,06,25,16,31,30.10
2006,06,25,16,32,30.10
2006,06,25,16,33,30.20
2006,06,25,16,34,30.20
2006,06,25,16,35,30.10
2006,06,25,16,36,30.10
2006,06,25,16,37,30.00
2006,06,25,16,38,29.80
2006,06,25,16,39,29.70
2006,06,25,16,40,29.70
2006,06,25,16,41,29.70
2006,06,25,16,42,29.70
2006,06,25,16,43,29.80
2006,06,25,16,44,29.80
2006,06,25,16,45,29.80
2006,06,25,16,46,29.80
2006,06,25,16,47,29.80
2006,06,25,16,48,29.80
2006,06,25,16,49,29.80
2006,06,25,16,50,29.90
2006,06,25,16,51,29.90
2006,06,25,16,52,29.90
2006,06,25,16,53,29.90
2006,06,25,16,54,29.90
2006,06,25,16,55,30.00
2006,06,25,16,56,30.10
2006,06,25,16,57,30.00
2006,06,25,16,58,29.90
2006,06,25,16,59,29.90
2006,06,25,17,00,29.90
2006,06,25,17,01,29.90
2006,06,25,17,02,29.90
2006,06,25,17,03,30.00
2006,06,25,17,04,30.10
2006,06,25,17,05,30.10
2006,06,25,17,06,30.10
2006,06,25,17,07,30.00
2006,06,25,17,08,30.00
2006,06,25,17,09,30.10
2006,06,25,17,10,30.10
2006,06,25,17,11,30.20
2006,06,25,17,12,30.20
2006,06,25,17,13,30.20
2006,06,25,17,14,30.20
2006,06,25,17,15,30.20
2006,06,25,17,16,30.20
2006,06,25,17,17,30.20
2006,06,25,17,18,30.20
2006,06,25,17,19,30.20